Weather History for KFBL - January, 2013

Change the Weather History Date:

Wednesday, January 30, 2013

  Actual Average Record
Temperature  
Mean Temperature 18 °F -  
Max Temperature 28 °F 24 °F 75 °F (1999)
Min Temperature 8 °F 3 °F -37 °F (1951)
Degree Days  
Heating Degree Days 47    
Moisture  
Dew Point 13 °F    
Average Humidity 83    
Maximum Humidity 93    
Minimum Humidity 73    
Precipitation  
Precipitation 0.00 in - - ()
Sea Level Pressure  
Sea Level Pressure 29.66 in    
Wind  
Wind Speed 16 mph (NW)    
Max Wind Speed 21 mph    
Max Gust Speed 29 mph    
Visibility 9 miles    
Events Snow    
Averages and records for this station are not official NWS values.
T = Trace of Precipitation, MM = Missing Value Source: NWS Daily Summary

Daily Weather History Graph

Daily Weather History Graph

Search for Another Location

Airport or City:

Trip Planner

Search our weather history database for the weather conditions in past years. The results will help you decide how hot, cold, wet, or windy it might be!

Date:

Astronomy

Jan. 30, 2013 Rise Set
Actual Time 7:33 AM CST 5:20 PM CST
Civil Twilight 7:02 AM CST 5:51 PM CST
Nautical Twilight 6:27 AM CST 6:26 PM CST
Astronomical Twilight 5:53 AM CST 7:00 PM CST
Moon 9:31 PM CST (1/30) 8:51 AM CST (1/30)
Length of Visible Light 10h 49m
Length of Day
9h 47m
Waning Gibbous, 87% of the Moon is Illuminated
Jan 30
Waning Gibbous
Feb 3
Last Quarter
Feb 10
New
Feb 17
First Quarter
Feb 25
Full

Hourly Weather History & Observations

Time (CST) Temp. Windchill Dew Point Humidity Pressure Visibility Wind Dir Wind Speed Gust Speed Precip Events Conditions
12:14 AM 28.4 °F 16.6 °F 24.8 °F 86% 29.66 in 10.0 mi North 16.1 mph 23.0 mph N/A   Overcast
12:34 AM 28.4 °F 16.6 °F 24.8 °F 86% 29.65 in 10.0 mi NNW 16.1 mph 21.9 mph N/A   Overcast
12:54 AM 26.6 °F 13.4 °F 24.8 °F 93% 29.63 in 10.0 mi NNW 18.4 mph 25.3 mph N/A   Overcast
1:14 AM 26.6 °F 14.7 °F 23.0 °F 86% 29.64 in 10.0 mi NNW 15.0 mph 25.3 mph N/A   Overcast
1:34 AM 26.6 °F 14.3 °F 21.2 °F 80% 29.64 in 10.0 mi NNW 16.1 mph 21.9 mph N/A   Overcast
1:54 AM 26.6 °F 13.4 °F 21.2 °F 80% 29.63 in 10.0 mi North 18.4 mph 21.9 mph N/A   Overcast
2:14 AM 26.6 °F 14.3 °F 21.2 °F 80% 29.63 in 10.0 mi NNW 16.1 mph 24.2 mph N/A   Overcast
2:34 AM 26.6 °F 15.2 °F 21.2 °F 80% 29.63 in 10.0 mi NNW 13.8 mph 19.6 mph N/A   Overcast
2:54 AM 24.8 °F 12.4 °F 21.2 °F 86% 29.64 in 10.0 mi NNW 15.0 mph 18.4 mph N/A   Overcast
3:14 AM 24.8 °F 11.9 °F 19.4 °F 80% 29.64 in 10.0 mi NNW 16.1 mph 21.9 mph N/A   Overcast
3:35 AM 24.8 °F 11.9 °F 19.4 °F 80% 29.64 in 10.0 mi North 16.1 mph 21.9 mph N/A   Overcast
3:54 AM 24.8 °F 11.9 °F 19.4 °F 80% 29.66 in 10.0 mi North 16.1 mph 21.9 mph N/A   Overcast
4:14 AM 24.8 °F 12.4 °F 19.4 °F 80% 29.66 in 10.0 mi North 15.0 mph 23.0 mph N/A   Overcast
4:34 AM 24.8 °F 12.9 °F 19.4 °F 80% 29.65 in 10.0 mi NNW 13.8 mph 18.4 mph N/A   Overcast
4:54 AM 23.0 °F 11.1 °F 19.4 °F 86% 29.66 in 10.0 mi NW 12.7 mph 18.4 mph N/A   Overcast
5:14 AM 23.0 °F 10.6 °F 19.4 °F 86% 29.65 in 10.0 mi NNW 13.8 mph 20.7 mph N/A   Overcast
5:54 AM 23.0 °F 11.1 °F 19.4 °F 86% 29.62 in 10.0 mi NW 12.7 mph 16.1 mph N/A   Overcast
6:14 AM 23.0 °F 9.6 °F 19.4 °F 86% 29.61 in 10.0 mi NNW 16.1 mph 20.7 mph N/A   Overcast
6:34 AM 23.0 °F 10.1 °F 19.4 °F 86% 29.60 in 10.0 mi NNW 15.0 mph 19.6 mph N/A   Overcast
7:14 AM 23.0 °F 11.7 °F 19.4 °F 86% 29.61 in 10.0 mi NW 11.5 mph 25.3 mph N/A   Overcast
7:34 AM 21.2 °F 9.5 °F 19.4 °F 93% 29.63 in 10.0 mi NW 11.5 mph 19.6 mph N/A   Overcast
7:54 AM 21.2 °F 7.3 °F 17.6 °F 86% 29.63 in 10.0 mi NW 16.1 mph 23.0 mph N/A   Overcast
8:14 AM 19.4 °F 5.5 °F 17.6 °F 93% 29.63 in 7.0 mi NW 15.0 mph 21.9 mph N/A   Overcast
8:34 AM 19.4 °F 4.1 °F 15.8 °F 86% 29.62 in 10.0 mi NW 18.4 mph 26.5 mph N/A   Overcast
8:54 AM 19.4 °F 5.0 °F 15.8 °F 86% 29.64 in 7.0 mi NW 16.1 mph 23.0 mph N/A Snow Light Snow
9:14 AM 17.6 °F 4.3 °F 15.8 °F 93% 29.65 in 5.0 mi NW 12.7 mph 21.9 mph N/A Snow Light Snow
9:34 AM 17.6 °F 3.2 °F 14.0 °F 86% 29.65 in 5.0 mi NW 15.0 mph 21.9 mph N/A Snow Light Snow
9:54 AM 17.6 °F 1.7 °F 15.8 °F 93% 29.65 in 4.0 mi NW 18.4 mph 23.0 mph N/A Snow Light Snow
10:14 AM 17.6 °F 1.7 °F 14.0 °F 86% 29.64 in 5.0 mi NW 18.4 mph 24.2 mph N/A Snow Light Snow
10:34 AM 17.6 °F 2.2 °F 12.2 °F 79% 29.64 in 7.0 mi NW 17.3 mph 25.3 mph N/A Snow Light Snow
10:54 AM 17.6 °F 3.7 °F 12.2 °F 79% 29.65 in 10.0 mi NW 13.8 mph 26.5 mph N/A   Overcast
11:14 AM 17.6 °F 2.7 °F 12.2 °F 79% 29.65 in 7.0 mi NW 16.1 mph 20.7 mph N/A Snow Light Snow
11:34 AM 17.6 °F 1.7 °F 12.2 °F 79% 29.64 in 7.0 mi NW 18.4 mph 25.3 mph N/A Snow Light Snow
11:54 AM 17.6 °F 4.3 °F 12.2 °F 79% 29.64 in 4.0 mi NW 12.7 mph 23.0 mph N/A Snow Light Snow
12:14 PM 15.8 °F 0.3 °F 12.2 °F 86% 29.64 in 4.0 mi WNW 16.1 mph 24.2 mph N/A Snow Light Snow
12:34 PM 15.8 °F 1.4 °F 12.2 °F 86% 29.64 in 4.0 mi WNW 13.8 mph 24.2 mph N/A Snow Light Snow
12:54 PM 15.8 °F -0.2 °F 12.2 °F 86% 29.63 in 7.0 mi WNW 17.3 mph 24.2 mph N/A Snow Light Snow
1:14 PM 15.8 °F -0.6 °F 10.4 °F 79% 29.63 in 7.0 mi NW 18.4 mph 25.3 mph N/A Snow Light Snow
1:34 PM 15.8 °F 0.3 °F 12.2 °F 86% 29.63 in 5.0 mi WNW 16.1 mph 23.0 mph N/A Snow Light Snow
1:54 PM 15.8 °F 2.7 °F 10.4 °F 79% 29.63 in 10.0 mi NW 11.5 mph 25.3 mph N/A   Overcast
2:14 PM 15.8 °F 0.9 °F 10.4 °F 79% 29.63 in 5.0 mi WNW 15.0 mph 25.3 mph N/A Snow Light Snow
2:34 PM 15.8 °F 0.9 °F 10.4 °F 79% 29.64 in 5.0 mi NW 15.0 mph 25.3 mph N/A Snow Light Snow
2:54 PM 15.8 °F 0.9 °F 10.4 °F 79% 29.64 in 7.0 mi NW 15.0 mph 25.3 mph N/A Snow Light Snow
3:14 PM 15.8 °F -0.6 °F 10.4 °F 79% 29.64 in 5.0 mi WNW 18.4 mph 25.3 mph N/A Snow Light Snow
3:34 PM 15.8 °F -0.6 °F 8.6 °F 73% 29.65 in 7.0 mi NW 18.4 mph 26.5 mph N/A Snow Light Snow
3:54 PM 15.8 °F 0.3 °F 8.6 °F 73% 29.65 in 10.0 mi NW 16.1 mph 28.8 mph N/A   Overcast
4:14 PM 15.8 °F -1.5 °F 8.6 °F 73% 29.66 in 10.0 mi NW 20.7 mph 26.5 mph N/A   Overcast
4:34 PM 15.8 °F 0.3 °F 8.6 °F 73% 29.66 in 10.0 mi NW 16.1 mph 25.3 mph N/A   Overcast
4:54 PM 15.8 °F 2.7 °F 10.4 °F 79% 29.67 in 7.0 mi WNW 11.5 mph 18.4 mph N/A Snow Light Snow
5:14 PM 15.8 °F 1.4 °F 10.4 °F 79% 29.67 in 10.0 mi WNW 13.8 mph 18.4 mph N/A Snow Light Snow
5:34 PM 15.8 °F -0.2 °F 8.6 °F 73% 29.67 in 10.0 mi WNW 17.3 mph 25.3 mph N/A Snow Light Snow
5:54 PM 15.8 °F 0.9 °F 10.4 °F 79% 29.68 in 10.0 mi WNW 15.0 mph 23.0 mph N/A   Overcast
6:14 PM 14.0 °F -2.5 °F 8.6 °F 79% 29.69 in 10.0 mi West 17.3 mph 24.2 mph N/A Snow Light Snow
6:34 PM 12.2 °F -3.7 °F 8.6 °F 85% 29.69 in 10.0 mi WNW 15.0 mph 23.0 mph N/A   Overcast
6:54 PM 12.2 °F -3.7 °F 8.6 °F 85% 29.69 in 10.0 mi WNW 15.0 mph 24.2 mph N/A Snow Light Snow
7:15 PM 12.2 °F -1.8 °F 8.6 °F 85% 29.69 in 10.0 mi WNW 11.5 mph - N/A Snow Light Snow
7:34 PM 12.2 °F -4.3 °F 8.6 °F 85% 29.70 in 10.0 mi WNW 16.1 mph 21.9 mph N/A   Overcast
7:54 PM 12.2 °F -3.7 °F 6.8 °F 79% 29.70 in 10.0 mi WNW 15.0 mph 27.6 mph N/A   Overcast
8:15 PM 12.2 °F -5.3 °F 6.8 °F 79% 29.70 in 10.0 mi WNW 18.4 mph 24.2 mph N/A   Overcast
8:34 PM 12.2 °F -4.8 °F 6.8 °F 79% 29.70 in 10.0 mi WNW 17.3 mph 24.2 mph N/A   Overcast
8:54 PM 12.2 °F -3.7 °F 6.8 °F 79% 29.70 in 10.0 mi WNW 15.0 mph 24.2 mph N/A   Overcast
9:14 PM 12.2 °F -3.7 °F 6.8 °F 79% 29.71 in 10.0 mi WNW 15.0 mph 23.0 mph N/A   Overcast
9:34 PM 12.2 °F -3.7 °F 6.8 °F 79% 29.72 in 10.0 mi WNW 15.0 mph 21.9 mph N/A   Overcast
9:54 PM 10.4 °F -7.2 °F 6.8 °F 85% 29.72 in 10.0 mi WNW 17.3 mph 20.7 mph N/A   Overcast
10:14 PM 10.4 °F -7.7 °F 6.8 °F 85% 29.72 in 7.0 mi WNW 18.4 mph - N/A   Overcast
10:34 PM 10.4 °F -7.2 °F 6.8 °F 85% 29.73 in 5.0 mi West 17.3 mph 25.3 mph N/A Snow Light Snow
10:54 PM 8.6 °F -8.9 °F 6.8 °F 92% 29.73 in 10.0 mi WNW 16.1 mph - N/A   Overcast
11:14 PM 8.6 °F -8.9 °F 5.0 °F 85% 29.74 in 10.0 mi West 16.1 mph 21.9 mph N/A   Overcast
11:34 PM 8.6 °F -7.7 °F 5.0 °F 85% 29.74 in 10.0 mi West 13.8 mph - N/A   Overcast
11:54 PM 8.6 °F -7.0 °F 5.0 °F 85% 29.75 in 10.0 mi West 12.7 mph 23.0 mph N/A   Unknown